TOURFACTS.DK  
Stats and Facts from Tour de France.

Tour de France 2019 starts in 320 days
  Riders   Stages   Teams   Summits   Yearly  


 
Search by year

After 2018 - Stage 21:
 15000 starters.
  5165 different riders.
  638 teams.
  2253 stages.
  456 restdays.
  442940.60 km.
  5684 abandonnees.


Top 3
GC
Geraint Thomas83:17:13
Tom Dumoulin83:19:04
Christopher Froome83:19:37
Climb
Julian Alaphilippe170 pt.
Warren Barguil91 pt.
Rafal Majka76 pt.
Sprint
Peter Sagan477 pt.
Alexander Kristoff246 pt.
Arnaud Démare203 pt.
Youth
Pierre-Roger Latou..83:39:26
Egan Bernal83:45:05
Guillaume Martin84:01:31
Facts from Tour de France 2017
  |   Stages.  |   Stage winners.  |   Days in yellow  |   Average speed.  |   Route.  |   Teams.  |   All riders.  |   Rookies.  |  

  |   Withdrawls.  |   GC.  |   Polka  |   Green  |   White  |   Summits. (In tour)  |   Miscellaneous.  |  

Stage 12 on 13 - 07 - 2017
         Owning:    Fabio Aru      Warren Barguil      Marcel Kittel      Simon Yates  

Pick a stage:  1 2 3 4 5 6 7 8 9 10 11 12 13 14 15 16 17 18 19 20 21
  PauPeyragudes | Dist: 214.50 km.
Cat: 4Côte de CapvernBELThomas De Gendt1 points 
Cat: 2Col des AresBELThomas De Gendt5 points 
Cat: 1Col de Menté/MourtisAUSMichael Matthews10 points 
Cat: HPort de BalèsENGStephen Cummings20 points 
Cat: 1Col de PeyresourdeESPMikel Nieve10 points 
Cat: 2Montee de PeyragudesFRARomain Bardet5 points 

Average speed for all riders in stage:  34,665 km./hr.
    Place:Name:Team:Time:Km/h:
1
FRARomain BardetFRAAg2r La Mondiale05:49:38  +  00:00:00=36,810 
2
COLRigoberto UránUSACannondale-Drapac Pro Cycling ..05:49:40  +  00:00:02=36,806 
3
ITAFabio AruKAZAstana Pro Team05:49:40  +  00:00:02=36,806 
44 ESPMikel Landa MeanaGBRSky Procycling05:49:43  +  00:00:05=36,801 
55 RSALouis MeintjesUAEUAE Team Emirates05:49:45  +  00:00:07=36,798 
66 ENGDaniel MartinBELQuick-Step Floors05:49:51  +  00:00:13=36,787 
77 KENChristopher FroomeGBRSky Procycling05:50:00  +  00:00:22=36,771 
88 NZLGeorge BennettNLDTeam Lotto NL - Jumbo05:50:05  +  00:00:27=36,763 
99 ENGSimon YatesAUSOrica - Scott05:50:05  +  00:00:27=36,763 
1010 ESPMikel NieveGBRSky Procycling05:51:06  +  00:01:28=36,656 
1111 COLNairo QuintanaESPMovistar Team05:51:42  +  00:02:04=36,594 
1212 FRAWarren BarguilDEUTeam Sunweb05:51:46  +  00:02:08=36,587 
1313 ITADamiano CarusoUSABMC Racing Team05:51:49  +  00:02:11=36,582 
1414 ESPAlberto ContadorUSATrek - Segafredo05:51:53  +  00:02:15=36,575 
1515 FRAPierre-Roger LatourFRAAg2r La Mondiale05:52:37  +  00:02:59=36,499 
1616 FRAGuillaume MartinBELWanty – Groupe Gobert05:53:58  +  00:04:20=36,359 
1717 BELTiesj BenootBELLotto Soudal05:54:11  +  00:04:33=36,337 
1818 BELSerge PauwelsZAFDimension Data05:54:14  +  00:04:36=36,332 
1919 FRAAlexis VuillermozFRAAg2r La Mondiale05:54:14  +  00:04:36=36,332 
2020 FRABrice FeilluFRAFortuneo - Vital Concept05:54:34  +  00:04:56=36,298 
2121 COLCarlos Alberto BetancurESPMovistar Team05:55:00  +  00:05:22=36,254 
2222 USANathan BrownUSACannondale-Drapac Pro Cycling ..05:55:19  +  00:05:41=36,221 
2323 GEREmanuel BuchmannDEUBora–Hansgrohe05:55:22  +  00:05:44=36,216 
2424 FRACyril GautierFRAAg2r La Mondiale05:55:35  +  00:05:57=36,194 
2525 COLJarlinson Pantano GomezUSATrek - Segafredo05:56:45  +  00:07:07=36,076 
2626 COLSergio Luis HenaoGBRSky Procycling05:56:45  +  00:07:07=36,076 
2727 FRAAmaël MoinardUSABMC Racing Team05:57:04  +  00:07:26=36,044 
2828 ESPLuis Angel MateFRACofidis – Solutions Crédits05:58:52  +  00:09:14=35,863 
2929 SLOJanez BrajkovicBHRBahrain-Merida06:00:07  +  00:10:29=35,738 
3030 BELThomas De GendtBELLotto Soudal06:00:07  +  00:10:29=35,738 
3131 ESPJonathan CastroviejoESPMovistar Team06:00:27  +  00:10:49=35,705 
3232 FRAMaxime BouetFRAFortuneo - Vital Concept06:01:05  +  00:11:27=35,643 
3333 CZERoman KreuzigerAUSOrica - Scott06:01:08  +  00:11:30=35,638 
3434 ENGStephen CummingsZAFDimension Data06:01:10  +  00:11:32=35,635 
3535 NEDBauke MollemaUSATrek - Segafredo06:01:28  +  00:11:50=35,605 
3636 FRARomain HardyFRAFortuneo - Vital Concept06:01:56  +  00:12:18=35,559 
3737 COLDarwin AtapumaUAEUAE Team Emirates06:02:02  +  00:12:24=35,549 
3838 FRALilian CalmejaneFRADirect Energie06:02:02  +  00:12:24=35,549 
3939 FRARudy MolardFRAFDJ06:02:02  +  00:12:24=35,549 
4040 BELJan BakelantsFRAAg2r La Mondiale06:02:02  +  00:12:24=35,549 
4141 FRAPierre RollandUSACannondale-Drapac Pro Cycling ..06:02:13  +  00:12:35=35,531 
4242 SLOPrimoz RoglicNLDTeam Lotto NL - Jumbo06:02:39  +  00:13:01=35,489 
4343 FRASylvain ChavanelFRADirect Energie06:02:43  +  00:13:05=35,482 
4444 ESPHaimar ZubeldiaUSATrek - Segafredo06:03:06  +  00:13:28=35,445 
4545 BELThomas DegandBELWanty – Groupe Gobert06:03:06  +  00:13:28=35,445 
4646 FRAAxel DomontFRAAg2r La Mondiale06:03:09  +  00:13:31=35,440 
4747 HRVRobert KiserlovskiCHETeam Katusha - Alpecin06:03:09  +  00:13:31=35,440 
4848 SUIMathias FrankFRAAg2r La Mondiale06:03:21  +  00:13:43=35,420 
4949 NEDKoen De KortUSATrek - Segafredo06:04:37  +  00:14:59=35,297 
5050 SUIStefan KüngUSABMC Racing Team06:04:55  +  00:15:17=35,268 
5151 KAZBakhtiyar KozhatayevKAZAstana Pro Team06:04:57  +  00:15:19=35,265 
5252 FRAPierre-Luc PérichonFRAFortuneo - Vital Concept06:05:39  +  00:16:01=35,198 
5353 GERGianluca BrambillaBELQuick-Step Floors06:05:59  +  00:16:21=35,166 
5454 NEDMarco MinnaardBELWanty – Groupe Gobert06:05:59  +  00:16:21=35,166 
5555 SUIDanilo WyssUSABMC Racing Team06:05:59  +  00:16:21=35,166 
5656 SUIMichael SchärUSABMC Racing Team06:05:59  +  00:16:21=35,166 
5757 FRAJulien SimonFRACofidis – Solutions Crédits06:06:26  +  00:16:48=35,122 
5858 LUXBen GastauerFRAAg2r La Mondiale06:06:45  +  00:17:07=35,092 
5959 FRARomain SicardFRADirect Energie06:06:53  +  00:17:15=35,079 
6060 POLMichal KwiatkowskiGBRSky Procycling06:07:00  +  00:17:22=35,068 
6161 USAAndrew TalanskyUSACannondale-Drapac Pro Cycling ..06:08:21  +  00:18:43=34,940 
6262 FRATony GallopinBELLotto Soudal06:09:22  +  00:19:44=34,843 
6363 FRANicolas EdetFRACofidis – Solutions Crédits06:09:22  +  00:19:44=34,843 
6464 FRALaurent PichonFRAFortuneo - Vital Concept06:09:22  +  00:19:44=34,843 
6565 ETHTsgabu Gebremaryan GrmayBHRBahrain-Merida06:09:25  +  00:19:47=34,839 
6666 BELOliver NaesenFRAAg2r La Mondiale06:09:25  +  00:19:47=34,839 
6767 BELGreg Van AvermaetUSABMC Racing Team06:09:25  +  00:19:47=34,839 
6868 AUSAdam HansenBELLotto Soudal06:09:25  +  00:19:47=34,839 
6969 ESPImanol ErvitiESPMovistar Team06:09:25  +  00:19:47=34,839 
7070 FRANicolas RocheUSABMC Racing Team06:09:34  +  00:19:56=34,825 
7171 FRAThomas VoecklerFRADirect Energie06:09:46  +  00:20:08=34,806 
7272 CZEOndrej CinkBHRBahrain-Merida06:09:46  +  00:20:08=34,806 
7373 ITAAlberto BettiolUSACannondale-Drapac Pro Cycling ..06:09:58  +  00:20:20=34,787 
7474 AUSDamien HowsonAUSOrica - Scott06:11:07  +  00:21:29=34,679 
7575 DENLars BakBELLotto Soudal06:13:43  +  00:24:05=34,438 
7676 ESPMarkel IrizarUSATrek - Segafredo06:13:43  +  00:24:05=34,438 
7777 PORTiago PintoCHETeam Katusha - Alpecin06:13:43  +  00:24:05=34,438 
7878 RSADaryl ImpeyAUSOrica - Scott06:13:43  +  00:24:05=34,438 
7979 BELPieter VanspeybrouckBELWanty – Groupe Gobert06:13:43  +  00:24:05=34,438 
8080 FRAPerrig QuemeneurFRADirect Energie06:13:43  +  00:24:05=34,438 
8181 FRAThibaut PinotFRAFDJ06:13:43  +  00:24:05=34,438 
8282 SLOGrega BoleBHRBahrain-Merida06:13:43  +  00:24:05=34,438 
8383 BELJulien VermoteBELQuick-Step Floors06:13:43  +  00:24:05=34,438 
8484 FRAOlivier Le GacFRAFDJ06:13:43  +  00:24:05=34,438 
8585 NEDMaurits LammertinkCHETeam Katusha - Alpecin06:13:43  +  00:24:05=34,438 
8686 GERTony MartinCHETeam Katusha - Alpecin06:13:43  +  00:24:05=34,438 
8787 NEDLaurens ten DamDEUTeam Sunweb06:13:43  +  00:24:05=34,438 
8888 COLJohan Esteban ChavesAUSOrica - Scott06:13:43  +  00:24:05=34,438 
8989 HRVKristijan DurasekUAEUAE Team Emirates06:13:43  +  00:24:05=34,438 
9090 KAZAlexey LutsenkoKAZAstana Pro Team06:13:43  +  00:24:05=34,438 
9191 BELJens KeukeleireAUSOrica - Scott06:13:43  +  00:24:05=34,438 
9292 BELPhilippe GilbertBELQuick-Step Floors06:13:43  +  00:24:05=34,438 
9393 ESPJavier Moreno BazánBHRBahrain-Merida06:13:43  +  00:24:05=34,438 
9494 FRAYoann OffredoBELWanty – Groupe Gobert06:13:43  +  00:24:05=34,438 
9595 GERSimon GeschkeDEUTeam Sunweb06:13:43  +  00:24:05=34,438 
9696 GERPaul MartensNLDTeam Lotto NL - Jumbo06:13:43  +  00:24:05=34,438 
9797 ESPDaniel NavarroFRACofidis – Solutions Crédits06:13:43  +  00:24:05=34,438 
9898 FRAElie GesbertFRAFortuneo - Vital Concept06:13:43  +  00:24:05=34,438 
9999 SUIReto HollensteinCHETeam Katusha - Alpecin06:13:43  +  00:24:05=34,438 
100100 NZLJack BauerBELQuick-Step Floors06:13:43  +  00:24:05=34,438 
101101 CRCAndrey AmadorESPMovistar Team06:13:43  +  00:24:05=34,438 
102102 GERNils PolittCHETeam Katusha - Alpecin06:13:43  +  00:24:05=34,438 
103103 FRAAngelo TulikFRADirect Energie06:13:43  +  00:24:05=34,438 
104104 POLPawel PoljanskiDEUBora–Hansgrohe06:13:57  +  00:24:19=34,416 
105105 ITAAlessandro De MarchiUSABMC Racing Team06:13:57  +  00:24:19=34,416 
106106 NEDDylan Van BaarleUSACannondale-Drapac Pro Cycling ..06:13:57  +  00:24:19=34,416 
107107 NEDTimo RoosenNLDTeam Lotto NL - Jumbo06:14:02  +  00:24:24=34,409 
108108 ENGBen SwiftUAEUAE Team Emirates06:14:04  +  00:24:26=34,406 
109109 FRAFlorian VachonFRAFortuneo - Vital Concept06:14:04  +  00:24:26=34,406 
110110 ESPJesus HerradaESPMovistar Team06:14:12  +  00:24:34=34,393 
111111 AUSSimon ClarkeUSACannondale-Drapac Pro Cycling ..06:14:20  +  00:24:42=34,381 
112112 NZLPaddy BevinUSACannondale-Drapac Pro Cycling ..06:14:48  +  00:25:10=34,338 
113113 BLRVasil KiryienkaGBRSky Procycling06:14:58  +  00:25:20=34,323 
114114 AUSMichael MatthewsDEUTeam Sunweb06:14:58  +  00:25:20=34,323 
115115 GERNikias ArndtDEUTeam Sunweb06:14:58  +  00:25:20=34,323 
116116 FRAYohann GèneFRADirect Energie06:15:57  +  00:26:19=34,233 
117117 FRAThomas BoudatFRADirect Energie06:16:00  +  00:26:22=34,229 
118118 ARGEduardo SepulvedaFRAFortuneo - Vital Concept06:16:02  +  00:26:24=34,226 
119119 ITAMatteo BonoUAEUAE Team Emirates06:16:11  +  00:26:33=34,212 
120120 NEDRoy CurversDEUTeam Sunweb06:16:11  +  00:26:33=34,212 
121121 ITAFabio FellineUSATrek - Segafredo06:16:14  +  00:26:36=34,207 
122122 ENGScott ThwaitesZAFDimension Data06:16:14  +  00:26:36=34,207 
123123 NOREdvald Boasson HagenZAFDimension Data06:16:14  +  00:26:36=34,207 
124124 NORVegard Stake LaengenUAEUAE Team Emirates06:16:14  +  00:26:36=34,207 
125125 ITAMarco MarcatoUAEUAE Team Emirates06:16:14  +  00:26:36=34,207 
126126 ITADiego UlissiUAEUAE Team Emirates06:16:19  +  00:26:41=34,200 
127127 FRAAdrien PetitFRADirect Energie06:16:51  +  00:27:13=34,152 
128128 JPNYukiya ArashiroBHRBahrain-Merida06:16:58  +  00:27:20=34,141 
129129 DENMichael ValgrenKAZAstana Pro Team06:17:20  +  00:27:42=34,108 
130130 KAZAndrey ZeitsKAZAstana Pro Team06:17:20  +  00:27:42=34,108 
131131 SUIJakob FuglsangKAZAstana Pro Team06:17:20  +  00:27:42=34,108 
132132 UKRAndriy GrivkoKAZAstana Pro Team06:17:20  +  00:27:42=34,108 
133133 KAZDmitriy GruzdevKAZAstana Pro Team06:17:20  +  00:27:42=34,108 
134134 RSAReinardt Janse Van RensburgZAFDimension Data06:17:53  +  00:28:15=34,058 
135135 RSAJaco VenterZAFDimension Data06:18:08  +  00:28:30=34,036 
136136 GERJasha SütterlinESPMovistar Team06:21:39  +  00:32:01=33,722 
137137 GERChristian KneesGBRSky Procycling06:23:56  +  00:34:18=33,521 
138138 BELTim WellensBELLotto Soudal06:23:56  +  00:34:18=33,521 
139139 ITADaniele BennatiESPMovistar Team06:23:56  +  00:34:18=33,521 
140140 BELFrederik BackaertBELWanty – Groupe Gobert06:23:56  +  00:34:18=33,521 
141141 NEDMike TeunissenDEUTeam Sunweb06:23:56  +  00:34:18=33,521 
142142 AUTMichael GoglUSATrek - Segafredo06:23:56  +  00:34:18=33,521 
143143 GERMarcus BurghardtDEUBora–Hansgrohe06:23:56  +  00:34:18=33,521 
144144 ITAFabio SabatiniBELQuick-Step Floors06:23:56  +  00:34:18=33,521 
145145 ITAAndrea PasqualonBELWanty – Groupe Gobert06:23:56  +  00:34:18=33,521 
146146 AUSJay McCarthyDEUBora–Hansgrohe06:23:56  +  00:34:18=33,521 
147147 NORAlexander KristoffCHETeam Katusha - Alpecin06:23:56  +  00:34:18=33,521 
148148 BELGuillaume Van KeirsbulckBELWanty – Groupe Gobert06:23:56  +  00:34:18=33,521 
149149 NZLDion SmithBELWanty – Groupe Gobert06:23:56  +  00:34:18=33,521 
150150 DDRRüdiger SeligDEUBora–Hansgrohe06:23:56  +  00:34:18=33,521 
151151 NEDRamon SinkeldamDEUTeam Sunweb06:23:56  +  00:34:18=33,521 
152152 GERAndré GreipelBELLotto Soudal06:23:56  +  00:34:18=33,521 
153153 USATaylor PhinneyUSACannondale-Drapac Pro Cycling ..06:23:56  +  00:34:18=33,521 
154154 GERRick ZabelCHETeam Katusha - Alpecin06:23:56  +  00:34:18=33,521 
155155 NEDAlbert TimmerDEUTeam Sunweb06:23:56  +  00:34:18=33,521 
156156 SUIMichael AlbasiniAUSOrica - Scott06:23:56  +  00:34:18=33,521 
157157 AUSMathew HaymanAUSOrica - Scott06:23:56  +  00:34:18=33,521 
158158 FRAFlorian SénéchalFRACofidis – Solutions Crédits06:23:56  +  00:34:18=33,521 
159159 BELDimitri ClaeysFRACofidis – Solutions Crédits06:24:05  +  00:34:27=33,508 
160160 BELJürgen RoelandtsBELLotto Soudal06:24:09  +  00:34:31=33,503 
161161 FRANacer BouhanniFRACofidis – Solutions Crédits06:24:10  +  00:34:32=33,501 
162162 NEDTom LeezerNLDTeam Lotto NL - Jumbo06:24:10  +  00:34:32=33,501 
163163 GERRobert WagnerNLDTeam Lotto NL - Jumbo06:24:17  +  00:34:39=33,491 
164164 ITASonny ColbrelliBHRBahrain-Merida06:24:17  +  00:34:39=33,491 
165165 SLOBorut BozicBHRBahrain-Merida06:24:17  +  00:34:39=33,491 
166166 WALLuke RoweGBRSky Procycling06:24:24  +  00:34:46=33,481 
167167 FRAChristophe LaporteFRACofidis – Solutions Crédits06:24:24  +  00:34:46=33,481 
168168 FRACyril LemoineFRACofidis – Solutions Crédits06:24:24  +  00:34:46=33,481 
169169 GERJohn DegenkolbUSATrek - Segafredo06:24:24  +  00:34:46=33,481 
170170 GERMarcel KittelBELQuick-Step Floors06:24:24  +  00:34:46=33,481 
171171 POLMaciej BodnarDEUBora–Hansgrohe06:24:24  +  00:34:46=33,481 
172172 CZEZdenek StybarBELQuick-Step Floors06:24:24  +  00:34:46=33,481 
173173 NEDDylan GroenewegenNLDTeam Lotto NL - Jumbo06:24:24  +  00:34:46=33,481 
174174 AUTMarco HallerCHETeam Katusha - Alpecin06:24:24  +  00:34:46=33,481 
175175 GERMarcel SiebergBELLotto Soudal06:24:31  +  00:34:53=33,471 
176176 ITADavide CimolaiFRAFDJ06:25:07  +  00:35:29=33,418 
177177 FRAArthur VichotFRAFDJ06:25:37  +  00:35:59=33,375 
178178 AUTBernhard EiselZAFDimension Data06:26:33  +  00:36:55=33,295 
179179 ENGDaniel McLayFRAFortuneo - Vital Concept06:27:35  +  00:37:57=33,206 

Todays birthdays.

1878  Jean Novo
1883  Jules Chabas
1890  Ange Aubry
1893  Roger Marye
1913  Paul Maye
1914  Lucien Vlaemynck
1915  Alphonse Antoine
1932  Rolf Graf
1953  Julio Rubiano
1959  Jos Haex
1959  Gerard Veldscholten
1963  Pablo Moreno
1964  Juan Castillo
1977  Iban Mayo
1994  Fernando Gaviria